Date,TemperatureHighF,TemperatureAvgF,TemperatureLowF,DewpointHighF,DewpointAvgF,DewpointLowF,HumidityHigh,HumidityAvg,HumidityLow,PressureMaxIn,PressureMinIn,WindSpeedMaxMPH,WindSpeedAvgMPH,GustSpeedMaxMPH,PrecipitationSumIn
2013-2-1,43,28,20,28,12,3,79,49,35,30.24,29.85,27,5,27,0.00
2013-2-2,43,30,19,31,16,5,88,57,31,30.24,29.94,13,2,13,0.00
2013-2-3,48,37,29,32,23,16,87,58,40,29.97,29.83,23,5,23,0.00
2013-2-4,55,37,25,28,19,13,60,48,32,30.03,29.91,14,2,14,0.00
2013-2-5,60,43,30,36,26,18,76,54,37,29.97,29.85,12,2,12,0.00
2013-2-6,61,44,30,33,26,19,86,53,27,30.12,29.97,10,2,10,0.00
2013-2-7,42,41,40,40,25,20,95,55,42,30.12,29.97,3,0,3,0.38
2013-2-8,52,43,35,44,35,24,98,76,45,30.09,29.88,24,4,24,0.38
2013-2-9,58,41,30,27,19,-11,69,48,6,30.24,30.06,16,4,18,0.00
2013-2-10,51,43,33,46,26,19,96,52,38,30.30,30.09,13,2,13,0.37
2013-2-11,59,52,44,54,45,29,96,79,50,30.09,29.97,13,2,13,0.04
2013-2-12,53,46,40,37,26,20,88,47,31,30.06,29.88,16,3,16,0.08
2013-2-13,56,44,36,45,36,26,96,76,48,29.91,29.62,15,4,15,0.21
2013-2-14,56,41,32,32,26,21,69,55,37,30.00,29.85,16,3,16,0.00
2013-2-15,62,40,25,35,27,19,86,62,32,30.03,29.88,13,2,13,0.00
2013-2-16,37,32,23,25,18,6,90,59,41,29.97,27.61,27,4,27,0.00
2013-2-17,37,27,21,12,6,-6,48,40,17,27.93,27.70,30,8,30,0.00
2013-2-18,53,36,18,26,16,5,74,45,31,28.02,27.88,15,2,15,0.00
2013-2-19,56,44,35,41,24,9,85,47,28,27.88,27.61,24,4,24,0.04
2013-2-20,48,37,30,12,-3,-15,40,21,8,30.06,27.76,17,5,17,0.00
2013-2-21,63,42,24,33,3,-11,76,28,5,30.15,30.00,9,2,9,0.20
2013-2-22,41,38,35,39,33,28,96,82,67,30.18,30.03,10,2,10,0.30
2013-2-23,55,46,38,49,43,36,97,90,80,30.03,29.83,3,1,5,0.16
2013-2-24,58,46,33,41,29,19,94,57,27,30.00,29.83,9,3,15,0.00
2013-2-25,48,37,30,29,23,17,79,56,40,30.09,29.97,5,2,10,0.00
2013-2-26,42,37,32,40,34,25,98,90,69,29.97,29.56,5,2,11,1.20
2013-2-27,59,44,32,37,31,24,98,61,36,29.77,29.65,7,4,13,0.00
2013-2-28,44,37,32,30,22,18,73,56,44,29.85,29.71,11,5,18,0.00